Погода в Заозерье

Россия / Смоленская область     55°39′18″N   31°34′31″E
темп.,
°C
ветер,
м/с
пор.,
м/с
влажн.,
%
обл.,
%
осадки,
мм/ч
давл.,
гПа
погр.,
м
12 апреля, пн
пн1200:00+8ююв298089 0.0 1029155
03:00+6ююв27825 0.0 1030126
06:00+5юв27834 0.0 1030125
09:00+10юв38620 0.0 1029343
12:00+15юв584297 0.0 10271235
15:00+15юв5736100 0.0 10251408
18:00+11юв4950100 0.0 1024632
21:00+9ююв31181100 0.1 1024531
13 апреля, вт
вт1300:00+8юв2391100 0.3 102384
03:00+8ююв2698100 1.8 1022215
06:00+8ю1199100 1.3 102130
09:00+11ююв129089 1.4 1021265
12:00+14ю2375100 0.0 1021687
15:00+16ююв3569100 0.0 10201012
18:00+15ююв2674100 1.2 1018178
21:00+12ю2390100 1.8 101960
14 апреля, ср
ср1400:00+11юв399299 0.1 1018411
03:00+9ююв399596 0.1 1017282
06:00+9ю31096100 0.1 1016437
09:00+11ю3789100 0.2 1017596
12:00+13ю467385 0.2 1017938
15:00+14ю3568100 0.7 1016920
18:00+13ююз127357 0.4 1016593
21:00+10с3692100 0.4 1017159
15 апреля, чт
чт1500:00+8с3796100 0.0 1017318
03:00+7ссв4896100 0.3 1017352
06:00+7ссв3897100 0.1 1016298
09:00+8св3896100 0.3 1017358
12:00+11всв358793 0.3 1017440
15:00+11всв3583100 0.4 1017539
18:00+12св4780100 0.3 1016682
21:00+9св3894100 1.3 1017324
16 апреля, пт
пт1600:00+9св3995100 0.8 1017310
03:00+8св51492100 0.8 1017605
06:00+7св51291100 0.1 1018582
09:00+8св51288100 0.1 1019662
12:00+8св51486100 0.7 1019739
15:00+8всв51387100 0.8 1021875
18:00+10св61382100 0.9 1020986
21:00+9всв71579100 0.9 1022882